Change the Weather History Date:

Saturday, April 27, 2013

  Actual Average Record
Temperature  
Mean Temperature 60 °F -  
Max Temperature 66 °F 74 °F 76 °F (2012)
Min Temperature 55 °F 50 °F 41 °F (1997)
Degree Days  
Heating Degree Days 4    
Growing Degree Days 10 (Base 50)    
Moisture  
Dew Point 57 °F    
Average Humidity 84    
Maximum Humidity 94    
Minimum Humidity 72    
Precipitation  
Precipitation 0.02 in 0.03 in - ()
Sea Level Pressure  
Sea Level Pressure 29.77 in    
Wind  
Wind Speed 7 mph ()    
Max Wind Speed 14 mph    
Max Gust Speed -    
Visibility 5.4 miles    
Events Rain    
Averages and records for this station are not official NWS values.
T = Trace of Precipitation, MM = Missing Value Source: Averaged Metar Reports

Daily Weather History Graph

Daily Weather History Graph

Search for Another Location

Airport or City:

Trip Planner

Search our weather history database for the weather conditions in past years. The results will help you decide how hot, cold, wet, or windy it might be!

Date:

Astronomy

Apr. 27, 2013 Rise Set
Actual Time 6:30 AM CEST 8:13 PM CEST
Civil Twilight 6:01 AM CEST 8:42 PM CEST
Nautical Twilight 5:27 AM CEST 9:17 PM CEST
Astronomical Twilight 4:50 AM CEST 9:54 PM CEST
Moon 10:24 PM CEST (4/27) 7:34 AM CEST (4/27)
Length of Visible Light 14h 40m
Length of Day
13h 43m
Waning Gibbous, 96% of the Moon is Illuminated
Apr 27
Waning Gibbous
May 2
Last Quarter
May 10
New
May 18
First Quarter
May 25
Full

Hourly Weather History & Observations

Time (CEST) Temp. Dew Point Humidity Pressure Visibility Wind Dir Wind Speed Gust Speed Precip Events Conditions
12:55 AM 60.8 °F 55.4 °F 82% 29.89 in 4.3 mi SSE 8.1 mph - N/A Rain Light Rain
1:55 AM 57.2 °F 53.6 °F 88% 29.86 in 3.7 mi SE 4.6 mph - N/A Rain Light Rain
2:00 AM 58 °F 53 °F 80% 29.87 in 4 mi SE 4.6 mph - -   Mist
3:55 AM 59.0 °F 55.4 °F 88% 29.80 in 3.7 mi SE 8.1 mph - N/A Rain Light Rain
4:55 AM 59.0 °F 55.4 °F 88% 29.77 in 3.7 mi SE 6.9 mph - N/A Rain Light Rain
5:00 AM 59 °F 54 °F 80% 29.80 in 4 mi SE 6.9 mph - - Rain Light Rain
6:55 AM 59.0 °F 55.4 °F 88% 29.74 in 3.1 mi SSE 5.8 mph - N/A Rain Light Rain
7:55 AM 60.8 °F 55.4 °F 82% 29.74 in 3.7 mi SSE 8.1 mph - N/A Rain Light Rain
8:00 AM 60 °F 56 °F 81% 29.75 in 4 mi SSE 8.1 mph - - Rain Light Rain
10:55 AM 62.6 °F 57.2 °F 82% 29.74 in 5.6 mi SW 10.4 mph - N/A   Scattered Clouds
11:00 AM 63 °F 56 °F 72% 29.75 in 6 mi SW 10.4 mph - -   Mist
11:55 AM 66.2 °F 59.0 °F 78% 29.74 in 5.6 mi SW 10.4 mph - N/A   Scattered Clouds
12:55 PM 64.4 °F 59.0 °F 83% 29.74 in 6.2 mi WSW 13.8 mph - N/A   Scattered Clouds
2:00 PM 65 °F 62 °F 85% 29.75 in 7 mi SW 13.8 mph - -   Mostly Cloudy
3:55 PM 64.4 °F 59.0 °F 83% 29.74 in 6.2 mi SW 13.8 mph - N/A   Mostly Cloudy
4:55 PM 64.4 °F 59.0 °F 83% 29.74 in 6.2 mi SSW 10.4 mph - N/A   Mostly Cloudy
5:00 PM 65 °F 59 °F 74% 29.74 in 7 mi SSW 10.4 mph - -   Overcast
5:55 PM 64.4 °F 59.0 °F 83% 29.74 in 6.2 mi SSW 9.2 mph - N/A   Mostly Cloudy
6:55 PM 64.4 °F 59.0 °F 83% 29.74 in 6.2 mi SW 9.2 mph - N/A   Scattered Clouds
7:55 PM 62.6 °F 59.0 °F 88% 29.74 in 6.2 mi SSW 4.6 mph - N/A   Scattered Clouds
8:00 PM 63 °F 60 °F 85% 29.74 in 6 mi SSW 4.6 mph - -   Mostly Cloudy
8:55 PM 59.0 °F 57.2 °F 94% 29.74 in 6.2 mi North 3.5 mph - N/A   Partly Cloudy
10:55 PM 55.4 °F 51.8 °F 88% 29.80 in 6.2 mi ESE 3.5 mph - N/A   Partly Cloudy
11:00 PM 55 °F 52 °F 84% 29.81 in 7 mi ESE 3.5 mph - -   Scattered Clouds
11:55 PM 55.4 °F 51.8 °F 88% 29.80 in 6.2 mi ESE 5.8 mph - N/A   Partly Cloudy